GPS BIIR-11

Last updated on July 14, 2020, 5:23 a.m. UTC

1 28190U 04009A   20195.29837509 -.00000078  00000-0  00000-0 0  9999
2 28190  56.2718   1.7415 0092002  95.5767  76.0112  2.00562073119565
UTC
Height (km)
Latitude
Longitude
Inclination
Orbital Period
UTC large
Height (km)
Speed (km/s)
/
Latitude / Longitude
Inclination (degrees)
Orbital Period (minutes)
Azimuth
Elevation
Range (km)
Doppler Factor
iOS Compass Heading
iOS Angle

Next 30 passes for location: Hong Kong

Rise time Rise Azimuth (degrees) Set time Set Azimuth (degrees) Duration Max altitude (degrees)

No matching passes for this satellites